Terminal Aerodrome Forecast
Issued by NWS Cleveland, OH

Home | Current Version | Previous Version | Graphics & Text | Print | Product List | Glossary Off
Versions: 1 2 3 4 5 6 7 8 9 10 11 12 13 14 15 16 17 18 19 20 21 22 23 24 25

000
FTUS41 KCLE 050400 AAA
TAFYNG
TAF AMD
KYNG 050435Z 0505/0524 31010G20KT P6SM OVC090
     FM050700 31010KT P6SM OVC090
     FM051500 33010KT P6SM OVC250
     FM052100 31010KT P6SM OVC050=

USA.gov is the U.S. government's official web portal to all federal, state and local government web resources and services.